Wind_Speed
38 39 39 39 40 40 41 41 41 41 42 43 44 44 44 44 46 46 45 46 46 46 46 45 45 45 46 45 46 46 45 45 45 45 45 44 43 42 42 42 42 41 41
39 39 39 40 39 40 40 40 41 42 43 44 46 45 45 45 46 47 47 47 48 48 47 48 47 47 47 47 47 47 47 47 47 47 47 47 46 45 45 45 44 44 44
38 38 39 39 39 40 40 40 41 42 44 46 47 47 47 47 48 48 49 49 49 49 49 48 48 48 49 49 49 49 49 49 49 49 49 49 49 48 47 47 47 46 46
38 38 38 38 39 40 40 40 42 43 45 47 48 48 49 49 48 49 50 51 51 51 50 50 50 50 50 50 50 51 51 51 51 51 51 51 51 51 50 49 49 49 49
38 38 38 38 39 40 41 42 43 44 46 47 48 49 50 51 50 50 51 51 51 51 51 51 51 51 51 51 51 52 52 52 53 53 53 53 52 53 53 51 51 51 51
38 38 39 39 40 40 41 42 44 45 46 47 49 50 51 51 51 51 51 52 52 52 52 51 51 51 52 51 52 53 53 53 54 54 54 54 53 54 54 53 53 52 52
38 38 39 40 40 41 42 43 44 44 45 46 48 49 50 51 51 52 52 52 53 53 53 52 52 51 52 52 52 53 53 54 54 54 55 54 54 54 54 54 54 54 53
38 39 40 40 41 41 42 43 43 44 45 46 47 48 49 50 51 52 52 52 52 52 52 52 52 51 52 52 52 53 54 54 54 55 55 55 55 55 55 55 56 55 54
38 39 40 41 41 41 42 42 43 43 44 44 45 47 46 47 48 49 49 50 50 51 51 51 51 51 51 52 52 52 53 54 55 56 56 56 56 56 55 56 56 57 57
39 40 40 41 41 41 42 42 42 42 43 43 44 44 44 45 46 47 48 49 49 50 50 51 50 50 51 51 52 52 52 53 55 56 56 56 56 57 56 56 56 57 58
40 40 40 40 41 41 41 42 41 42 42 43 43 42 44 45 45 47 47 48 48 49 51 51 50 50 51 51 51 51 52 54 54 56 57 57 58 58 57 57 57 58 58
39 39 39 39 40 40 40 40 41 41 41 42 43 42 43 44 45 46 47 47 48 49 50 51 51 51 52 53 52 52 53 53 54 56 57 58 59 59 58 58 58 59 59
39 39 39 39 39 40 40 40 40 40 41 41 41 42 42 42 43 44 46 47 48 48 49 49 50 49 50 52 52 53 53 54 54 55 56 57 57 59 60 60 60 60 60
38 38 39 39 40 40 40 40 41 41 41 41 41 43 43 42 42 43 45 47 48 48 49 50 50 51 51 51 52 53 54 54 55 55 55 56 57 59 60 61 61 61 61
37 38 38 38 38 39 39 39 40 40 40 41 41 42 43 43 43 44 46 47 48 49 49 50 50 52 53 53 53 53 53 54 55 56 57 57 58 59 60 61 61 61 61
36 36 37 36 36 37 37 38 39 39 40 40 42 43 44 44 44 45 45 45 47 48 50 51 51 52 53 54 55 55 55 55 56 57 58 59 60 60 60 60 60 60 60
34 34 34 35 35 36 36 37 38 39 40 40 42 43 43 44 45 45 45 46 46 48 50 51 51 52 53 54 55 55 56 56 57 58 58 59 60 60 60 60 60 59 59
34 33 33 34 34 35 36 37 37 38 40 41 41 42 43 43 43 44 46 46 47 48 48 50 51 52 53 54 55 56 56 57 57 58 58 58 58 58 59 59 59 59 59
33 33 33 33 34 34 35 36 37 38 38 40 41 41 42 43 44 44 45 46 46 47 48 49 49 50 51 53 54 55 56 56 56 56 56 56 57 57 57 58 58 58 58
33 34 34 33 34 34 35 35 37 38 38 39 40 40 41 42 42 43 44 44 45 45 46 47 49 50 51 52 53 54 54 54 54 55 55 55 55 56 57 57 57 58 58
34 34 34 34 34 35 35 36 37 38 38 38 38 39 40 41 41 42 42 43 44 45 46 47 47 48 49 50 51 51 52 53 53 54 54 54 54 55 55 57 57 57 58
35 35 35 35 35 35 36 37 37 37 38 37 38 38 39 41 41 41 42 43 44 44 45 45 46 47 47 48 49 50 50 51 51 51 52 53 53 53 53 55 56 56 57
35 36 36 36 36 37 37 37 37 37 37 38 38 39 39 40 40 41 42 42 43 43 43 44 45 45 46 46 47 48 49 50 50 49 49 50 51 52 52 52 53 53 54
35 36 36 36 36 36 36 37 37 37 38 38 39 39 39 40 41 41 41 41 41 41 42 42 43 43 44 45 46 46 47 48 48 48 48 48 49 49 50 50 50 51 52
34 34 35 35 36 36 36 36 36 36 37 38 37 37 38 39 39 39 39 39 39 39 39 40 40 41 41 42 43 44 44 46 46 47 47 47 48 49 49 48 48 49 49
33 34 35 35 35 35 35 35 35 35 35 35 34 35 35 36 36 36 36 37 38 38 38 38 38 38 39 39 40 42 43 44 44 45 46 46 46 47 47 47 46 47 47
Wind_Direction
268 267 267 267 266 265 265 264 262 259 258 259 259 260 261 261 260 260 259 258 258 260 260 260 260 259 259 258 258 257 255 255 254 254 254 255 256 257 257 258 258 257 257
268 267 267 267 267 266 266 263 262 260 260 259 259 261 262 262 262 261 260 259 259 259 260 260 260 260 259 258 258 257 256 255 254 254 254 255 256 257 257 258 258 259 258
268 268 267 268 268 266 265 263 262 261 261 260 260 262 263 263 263 262 261 260 260 259 260 260 260 260 259 258 258 257 256 255 255 254 254 255 255 256 257 257 258 259 259
269 268 268 268 268 266 265 264 263 263 263 263 263 263 263 263 264 263 262 261 261 260 260 261 260 260 259 259 258 257 256 256 255 255 255 255 256 256 256 257 257 258 259
269 269 269 268 268 267 266 265 264 265 265 265 264 264 263 263 263 263 262 261 261 260 260 261 260 260 259 258 258 257 256 256 256 256 256 256 256 256 257 257 257 258 259
270 270 270 269 268 267 267 266 266 266 266 266 266 266 265 263 264 263 262 261 260 260 260 261 259 259 258 258 258 258 257 256 256 256 256 256 256 257 257 257 258 258 259
270 270 271 270 269 268 268 268 268 269 269 268 268 268 267 265 264 263 261 261 260 260 260 260 258 258 258 258 259 258 257 257 257 257 256 256 256 257 258 258 258 258 259
272 272 272 272 270 269 269 270 270 270 271 269 268 268 268 266 265 264 262 261 260 259 260 260 259 258 259 259 259 258 258 257 257 257 257 257 257 257 257 258 259 258 258
274 273 273 272 271 270 270 271 271 271 271 270 270 269 269 268 265 264 263 261 260 260 260 260 259 259 259 259 259 258 259 258 258 258 258 257 257 257 258 258 259 259 258
275 275 274 273 272 271 271 272 272 272 271 271 271 270 270 269 267 265 264 262 261 260 260 260 259 259 259 259 259 259 259 259 259 259 259 258 257 257 257 259 259 259 259
275 274 274 273 273 273 273 272 272 271 270 270 271 271 270 269 268 265 264 262 262 262 261 261 261 260 259 260 260 260 261 261 260 260 259 260 259 258 258 259 259 259 259
277 275 275 274 274 273 273 273 273 272 271 270 271 270 270 270 269 267 264 263 264 264 263 261 261 261 261 260 261 261 262 262 262 261 260 260 260 259 259 259 259 259 260
277 276 275 275 274 273 272 272 272 271 270 271 270 271 272 271 269 268 266 265 266 265 263 262 262 262 262 261 261 262 262 262 262 262 261 260 260 260 260 260 260 260 260
278 277 277 275 274 273 271 270 271 271 271 270 271 272 272 271 270 269 269 268 267 266 263 262 262 262 263 263 263 263 263 263 263 263 262 262 262 261 260 260 260 260 260
279 279 278 277 276 275 273 271 270 271 271 271 271 272 272 271 272 272 270 270 269 267 265 264 263 263 263 263 264 263 263 263 263 264 263 263 263 262 261 260 260 260 260
281 280 280 279 278 277 274 273 272 271 271 271 272 272 272 271 273 273 272 272 270 267 266 266 265 264 263 263 264 264 263 264 265 265 265 265 264 263 261 260 260 259 260
283 282 281 280 279 277 276 274 274 273 273 273 273 274 274 273 273 273 273 273 271 268 268 266 265 264 264 264 265 265 265 265 265 266 266 265 264 264 262 260 259 259 260
284 285 285 284 281 279 278 277 276 275 275 275 275 275 275 275 273 274 274 273 272 271 270 268 267 266 265 265 266 266 266 266 267 267 266 266 264 264 263 261 260 260 260
285 285 285 285 284 282 281 280 279 278 278 278 278 277 277 275 273 274 275 274 275 273 272 271 269 268 267 267 267 267 268 268 267 267 266 265 264 263 263 261 260 260 260
284 284 284 285 285 284 283 283 282 281 281 281 280 279 278 277 276 276 276 276 276 275 274 273 272 271 270 269 269 268 268 268 268 267 267 266 265 264 263 262 261 260 260
283 283 284 285 286 286 285 285 284 284 283 282 281 280 279 279 279 279 279 278 278 277 276 274 273 273 271 270 270 269 269 270 269 268 267 267 267 266 265 264 263 262 261
285 285 285 286 286 287 286 286 285 285 284 283 282 282 282 283 283 283 282 281 281 279 278 276 274 274 273 271 270 270 271 271 271 270 268 268 267 267 267 266 265 264 263
287 288 287 287 286 287 286 286 285 285 284 284 284 284 285 286 286 286 285 284 283 281 279 277 276 275 274 273 272 272 272 272 271 270 269 268 267 268 267 266 264 263 262
288 288 288 287 287 288 288 287 286 285 286 286 286 285 286 286 287 287 286 285 284 283 282 280 278 276 276 275 274 273 272 272 271 269 269 268 267 267 266 265 264 263 261
289 289 289 288 288 289 289 288 288 288 288 288 287 287 287 287 287 287 286 286 286 286 285 283 281 279 278 277 276 274 273 273 272 271 269 269 267 266 266 266 265 264 262
292 292 291 291 290 291 290 289 290 290 289 289 289 290 290 290 288 288 288 287 288 287 286 285 283 282 280 278 277 277 276 275 274 272 271 270 268 266 266 266 265 264 264
Height
5697 5696 5696 5696 5696 5696 5697 5697 5698 5699 5701 5702 5704 5705 5706 5707 5708 5709 5711 5713 5714 5716 5717 5719 5720 5722 5723 5725 5727 5729 5732 5735 5737 5740 5743 5746 5749 5751 5753 5755 5757 5760 5762
5687 5686 5686 5685 5685 5685 5686 5686 5687 5689 5690 5691 5692 5693 5694 5695 5696 5697 5698 5700 5701 5703 5704 5706 5707 5709 5710 5712 5714 5716 5719 5722 5724 5728 5731 5735 5738 5739 5742 5744 5746 5748 5750
5677 5676 5676 5675 5675 5675 5675 5676 5677 5678 5679 5679 5680 5681 5682 5683 5683 5684 5685 5687 5688 5690 5691 5692 5694 5696 5697 5699 5701 5703 5706 5709 5711 5714 5717 5721 5725 5727 5730 5732 5734 5736 5738
5667 5667 5666 5666 5665 5665 5665 5666 5666 5666 5667 5667 5667 5668 5669 5670 5670 5670 5671 5673 5674 5676 5677 5679 5680 5682 5683 5685 5687 5689 5692 5695 5697 5700 5703 5706 5710 5713 5717 5720 5721 5723 5725
5657 5657 5656 5655 5655 5655 5655 5655 5655 5655 5655 5655 5655 5655 5655 5656 5656 5656 5657 5659 5660 5662 5664 5665 5666 5668 5669 5671 5673 5675 5677 5680 5683 5686 5689 5692 5695 5698 5701 5706 5708 5710 5712
5647 5646 5646 5645 5644 5644 5644 5644 5644 5644 5643 5642 5642 5641 5641 5642 5643 5643 5644 5645 5647 5648 5649 5651 5652 5654 5655 5657 5659 5660 5663 5666 5669 5672 5674 5677 5680 5683 5686 5690 5693 5695 5698
5637 5636 5635 5634 5634 5633 5633 5633 5632 5632 5631 5630 5629 5628 5628 5628 5629 5629 5630 5631 5633 5634 5636 5636 5638 5639 5641 5643 5644 5646 5649 5652 5654 5657 5660 5663 5666 5668 5671 5674 5677 5680 5683
5626 5625 5624 5623 5623 5622 5622 5621 5621 5620 5619 5618 5617 5616 5615 5615 5615 5615 5616 5617 5618 5620 5621 5622 5624 5625 5627 5628 5630 5632 5635 5637 5640 5642 5645 5648 5651 5653 5655 5658 5661 5664 5667
5615 5614 5613 5612 5611 5611 5610 5610 5609 5608 5607 5606 5605 5604 5603 5602 5602 5602 5603 5604 5605 5606 5608 5609 5610 5611 5613 5614 5616 5618 5621 5623 5625 5627 5630 5632 5635 5638 5640 5642 5644 5647 5650
5604 5603 5602 5601 5600 5599 5599 5598 5597 5596 5595 5594 5593 5591 5590 5590 5589 5590 5590 5591 5592 5593 5595 5596 5597 5598 5599 5601 5602 5605 5607 5609 5610 5612 5615 5617 5620 5622 5624 5626 5628 5630 5633
5593 5592 5590 5589 5589 5588 5587 5586 5585 5584 5583 5582 5581 5579 5578 5578 5577 5577 5578 5579 5580 5581 5582 5583 5584 5585 5586 5587 5589 5591 5592 5594 5596 5597 5599 5602 5603 5606 5608 5610 5612 5614 5616
5581 5580 5579 5578 5577 5576 5575 5574 5574 5573 5571 5570 5569 5568 5567 5566 5565 5565 5566 5567 5567 5568 5569 5570 5571 5572 5573 5574 5575 5577 5578 5579 5581 5582 5584 5586 5587 5589 5591 5593 5595 5597 5599
5570 5569 5568 5566 5565 5564 5564 5563 5562 5561 5560 5559 5558 5556 5555 5554 5554 5553 5554 5554 5555 5556 5556 5557 5558 5559 5559 5560 5561 5562 5563 5564 5566 5567 5568 5570 5571 5573 5575 5577 5579 5580 5582
5559 5558 5556 5555 5554 5553 5552 5551 5550 5549 5548 5547 5546 5545 5544 5543 5542 5542 5542 5542 5542 5543 5543 5544 5544 5545 5545 5546 5546 5547 5548 5549 5551 5552 5552 5554 5555 5556 5558 5559 5561 5562 5564
5549 5547 5545 5544 5542 5541 5540 5539 5538 5538 5537 5536 5535 5534 5533 5532 5531 5530 5530 5529 5529 5529 5530 5530 5531 5531 5531 5532 5532 5532 5533 5534 5535 5536 5536 5537 5538 5539 5540 5542 5543 5544 5546
5538 5536 5534 5533 5531 5530 5529 5528 5527 5526 5525 5524 5523 5522 5521 5520 5518 5518 5517 5516 5516 5516 5516 5516 5516 5516 5517 5517 5517 5517 5517 5518 5519 5519 5520 5520 5521 5522 5523 5524 5525 5527 5528
5528 5526 5524 5522 5521 5520 5519 5517 5516 5515 5514 5513 5511 5510 5508 5507 5506 5505 5504 5503 5502 5502 5502 5501 5501 5502 5501 5501 5501 5501 5501 5502 5502 5503 5503 5503 5504 5504 5505 5506 5507 5509 5511
5518 5516 5514 5513 5511 5509 5508 5507 5505 5504 5503 5501 5500 5498 5496 5494 5493 5492 5491 5490 5489 5488 5487 5486 5486 5486 5486 5485 5485 5484 5485 5485 5486 5486 5486 5486 5486 5486 5487 5489 5491 5492 5494
5509 5507 5505 5503 5501 5499 5498 5496 5495 5493 5491 5490 5488 5486 5484 5482 5481 5479 5478 5476 5475 5474 5472 5472 5471 5471 5471 5469 5469 5468 5468 5468 5469 5469 5468 5468 5469 5470 5470 5472 5474 5476 5478
5499 5497 5495 5493 5491 5489 5487 5486 5484 5482 5480 5478 5476 5474 5472 5470 5468 5466 5465 5463 5461 5459 5458 5457 5456 5456 5455 5454 5453 5452 5452 5452 5452 5452 5452 5452 5452 5453 5453 5454 5456 5459 5462
5490 5488 5486 5484 5482 5479 5477 5475 5473 5471 5469 5467 5464 5462 5460 5458 5456 5454 5452 5450 5448 5446 5445 5444 5442 5441 5440 5439 5437 5436 5435 5435 5435 5435 5435 5435 5436 5436 5437 5437 5439 5442 5444
5479 5477 5475 5473 5471 5469 5467 5464 5462 5460 5458 5455 5453 5451 5449 5446 5444 5441 5439 5436 5434 5432 5430 5429 5428 5426 5424 5423 5422 5420 5419 5419 5418 5419 5419 5420 5420 5421 5421 5421 5423 5424 5426
5469 5467 5465 5463 5461 5458 5456 5454 5451 5449 5446 5444 5442 5439 5437 5434 5432 5429 5426 5424 5421 5419 5417 5415 5413 5412 5410 5408 5407 5406 5405 5403 5403 5403 5403 5404 5404 5405 5405 5406 5406 5407 5409
5459 5456 5454 5452 5450 5448 5445 5443 5440 5438 5435 5433 5430 5428 5425 5423 5420 5417 5414 5411 5408 5405 5403 5401 5399 5397 5396 5394 5393 5391 5390 5389 5388 5388 5388 5389 5389 5389 5389 5390 5391 5391 5393
5449 5446 5444 5442 5439 5437 5434 5432 5429 5427 5424 5422 5419 5416 5413 5411 5408 5405 5402 5399 5396 5393 5390 5388 5386 5384 5383 5380 5378 5376 5376 5374 5374 5373 5373 5374 5374 5374 5374 5375 5376 5377 5378
5439 5436 5434 5431 5429 5427 5424 5421 5419 5416 5413 5411 5408 5405 5402 5399 5396 5394 5391 5387 5384 5381 5378 5376 5374 5371 5369 5367 5365 5364 5362 5360 5359 5359 5359 5359 5359 5360 5360 5361 5362 5363 5364